Home   Weather   Nanaimo   Past weeks

Flag for Canada Past Weather in Nanaimo, British Columbia, Canada — Yesterday and Last 2 Weeks

Now
45 °F

Quite cool.


Feels Like: 39 °F
Forecast: 42 / 44 °F
Wind: 10 mph from Southwest

Location: Entrance Island

Current Time: Jan 22, 2017 at 10:46:20 am

Latest Report: Jan 22, 2017 at 10:00 am


Visibility: N/A

Pressure: 29.45 "Hg

Humidity: 77%

Dew Point: 38 °F

Location of NanaimoLocation

Past Weather in Nanaimo — Graph

°F

Nanaimo Temperature Yesterday

Maximum temperature yesterday: 46 °F (at 4:00 pm)
Minimum temperature yesterday: 42 °F (at 12:00 am)
Average temperature yesterday: 44 °F

High & Low Weather Summary for the Past Weeks

 TemperatureHumidityPressure
High50 °F (Jan 18, 4:00 pm)100% (Jan 8, 10:00 pm)30.47 "Hg (Jan 8, 10:00 pm)
Low30 °F (Jan 12, 7:00 am)52% (Jan 11, 12:00 pm)29.14 "Hg (Jan 20, 2:00 pm)
Average40 °F80%29.78 "Hg
* Reported Jan 7 9:00 am — Jan 22 9:00 am, Nanaimo, Weather by CustomWeather, © 2017

Note: Actual official high and low records may vary slightly from our data, if they occured in-between our weather recording intervals... More about our weather records

Advertising

Nanaimo Weather History for the Previous 24 Hours

Scroll right to see more
 ConditionsComfort  
Time TempWeatherWind HumidityBarometerVisibility
9:00 am
Sun, Jan 22
42 °FQuite cool.12 mph87%29.43 "HgN/A
8:00 am42 °FQuite cool.9 mph89%29.41 "HgN/A
7:00 am43 °FQuite cool.8 mph86%29.43 "HgN/A
6:00 am44 °FQuite cool.12 mph87%29.44 "HgN/A
5:00 am44 °FQuite cool.14 mph84%29.49 "HgN/A
4:00 am44 °FQuite cool.17 mph88%29.51 "HgN/A
3:00 am45 °FQuite cool.17 mph86%29.53 "HgN/A
2:00 am44 °FQuite cool.20 mph86%29.54 "HgN/A
1:00 am45 °FQuite cool.16 mph85%29.56 "HgN/A
12:00 am45 °FQuite cool.16 mph86%29.57 "HgN/A
11:00 pm
Sat, Jan 21
45 °FQuite cool.17 mph86%29.55 "HgN/A
10:00 pm45 °FQuite cool.16 mph87%29.54 "HgN/A
9:00 pm45 °FCool.10 mph87%29.54 "HgN/A
8:00 pm45 °FQuite cool.7 mph88%29.52 "HgN/A
7:00 pm46 °FCool.8 mph84%29.49 "HgN/A
6:00 pm46 °FCool.9 mph83%29.48 "HgN/A
5:00 pm46 °FCool.7 mph83%29.46 "HgN/A
4:00 pm46 °FCool.7 mph82%29.44 "HgN/A
3:00 pm46 °FCool.8 mph83%29.42 "HgN/A
2:00 pm45 °FCool.8 mph83%29.41 "HgN/A
1:00 pm45 °FCool.9 mph77%29.40 "HgN/A
12:00 pm45 °FQuite cool.12 mph84%29.38 "HgN/A
11:00 am44 °FQuite cool.12 mph87%29.37 "HgN/A
10:00 am44 °FQuite cool.7 mph81%29.35 "HgN/A
Weather by CustomWeather, © 2017

See weather overviewHow to use our weather pages